TimePST,TemperatureF,Dew PointF,Humidity,Sea Level PressureIn,VisibilityMPH,Wind Direction,Wind SpeedMPH,Gust SpeedMPH,PrecipitationIn,Events,Conditions,WindDirDegrees,DateUTC
12:53 AM,39.0,37.0,93,30.00,9.0,NNE,6.9,-,N/A,,Overcast,20,2012-12-25 08:53:00
1:53 AM,39.9,37.0,89,29.99,5.0,NE,3.5,-,0.02,Rain,Light Rain,40,2012-12-25 09:53:00
2:08 AM,39.2,37.4,93,29.98,9.0,Calm,Calm,-,0.00,Rain,Light Rain,0,2012-12-25 10:08:00
2:53 AM,41.0,36.0,82,29.96,6.0,SE,5.8,-,0.07,Rain,Rain,140,2012-12-25 10:53:00
3:53 AM,39.9,36.0,86,29.91,10.0,East,4.6,-,0.09,Rain,Light Rain,80,2012-12-25 11:53:00
4:53 AM,39.0,37.0,93,29.88,10.0,Calm,Calm,-,0.05,Rain,Light Rain,0,2012-12-25 12:53:00
5:53 AM,39.0,37.9,96,29.83,9.0,ENE,6.9,-,0.05,Rain,Light Rain,70,2012-12-25 13:53:00
6:40 AM,39.2,37.4,93,29.78,10.0,ENE,5.8,-,0.02,Rain,Light Rain,70,2012-12-25 14:40:00
6:53 AM,39.0,37.9,96,29.77,10.0,NE,6.9,-,0.02,Rain,Light Rain,50,2012-12-25 14:53:00
7:34 AM,37.4,37.4,100,29.74,9.0,NNW,4.6,-,0.02,Rain,Light Rain,340,2012-12-25 15:34:00
7:46 AM,37.4,35.6,93,29.74,10.0,NNW,4.6,-,0.03,Rain,Light Rain,340,2012-12-25 15:46:00
7:53 AM,36.0,36.0,100,29.75,10.0,NW,4.6,-,0.03,Rain,Light Rain,320,2012-12-25 15:53:00
8:17 AM,35.6,35.6,100,29.73,10.0,North,6.9,-,0.01,Rain,Light Rain,350,2012-12-25 16:17:00
8:53 AM,37.0,36.0,96,29.73,6.0,North,4.6,-,0.05,Rain,Light Rain,350,2012-12-25 16:53:00
9:12 AM,37.4,35.6,93,29.73,10.0,North,5.8,-,0.01,Rain,Light Rain,360,2012-12-25 17:12:00
9:53 AM,37.0,37.0,100,29.73,9.0,North,4.6,-,0.03,Rain,Light Rain,360,2012-12-25 17:53:00
10:07 AM,37.4,37.4,100,29.72,10.0,North,4.6,-,0.00,Rain,Light Rain,360,2012-12-25 18:07:00
10:53 AM,37.9,37.9,100,29.72,10.0,North,3.5,-,0.03,Rain,Light Rain,350,2012-12-25 18:53:00
11:32 AM,37.4,37.4,100,29.70,6.0,North,3.5,-,0.00,Rain,Light Rain,10,2012-12-25 19:32:00
11:53 AM,39.0,39.0,100,29.70,6.0,Calm,Calm,-,0.01,Rain,Light Rain,0,2012-12-25 19:53:00
12:08 PM,39.2,39.2,100,29.69,7.0,Calm,Calm,-,0.00,,Overcast,0,2012-12-25 20:08:00
12:41 PM,39.2,39.2,100,29.68,6.0,North,4.6,-,0.00,,Overcast,360,2012-12-25 20:41:00
12:48 PM,39.2,39.2,100,29.68,6.0,North,4.6,-,0.00,,Overcast,10,2012-12-25 20:48:00
12:53 PM,39.9,39.9,100,29.68,4.0,Calm,Calm,-,0.00,,Overcast,0,2012-12-25 20:53:00
1:53 PM,39.9,39.9,100,29.68,4.0,NNW,4.6,-,0.01,Rain,Light Rain,340,2012-12-25 21:53:00
2:18 PM,41.0,39.2,93,29.67,6.0,North,3.5,-,0.00,Rain,Light Rain,350,2012-12-25 22:18:00
2:53 PM,39.9,39.0,97,29.67,4.0,North,5.8,-,0.01,Rain,Light Rain,350,2012-12-25 22:53:00
3:53 PM,39.9,39.9,100,29.67,10.0,NNW,5.8,-,0.00,Rain,Light Rain,340,2012-12-25 23:53:00
4:21 PM,39.2,-9999,N/A,29.67,9.0,North,5.8,-,0.00,Rain,Light Rain,350,2012-12-26 00:21:00
4:53 PM,39.9,-9999,N/A,29.68,10.0,NNW,3.5,-,0.00,,Overcast,340,2012-12-26 00:53:00
5:53 PM,39.9,-9999,N/A,29.68,10.0,NNW,6.9,-,0.01,Rain,Light Rain,340,2012-12-26 01:53:00
6:53 PM,39.9,-9999,N/A,29.68,10.0,North,4.6,-,0.00,,Overcast,350,2012-12-26 02:53:00
7:53 PM,41.0,-9999,N/A,29.68,4.0,North,5.8,-,0.01,Rain,Light Rain,360,2012-12-26 03:53:00
8:53 PM,41.0,-9999,N/A,29.69,6.0,Calm,Calm,-,0.02,Rain,Light Rain,0,2012-12-26 04:53:00
9:35 PM,41.0,-9999,N/A,29.69,6.0,Calm,Calm,-,0.02,Rain,Light Rain,0,2012-12-26 05:35:00
9:53 PM,41.0,-9999,N/A,29.69,6.0,North,3.5,-,0.02,Rain,Light Rain,10,2012-12-26 05:53:00
10:00 PM,41.0,-9999,N/A,29.69,7.0,Calm,Calm,-,0.00,Rain,Light Rain,0,2012-12-26 06:00:00
10:53 PM,41.0,-9999,N/A,29.70,8.0,Calm,Calm,-,0.01,Rain,Light Rain,0,2012-12-26 06:53:00
11:53 PM,41.0,-9999,N/A,29.72,9.0,NNW,4.6,-,0.01,Rain,Light Rain,340,2012-12-26 07:53:00